sat.trackr.live / text

‹ back to catalog

UNKNOWN

NORAD 87280

UNKNOWN UNKNOWN UNKNOWN

§ Identity

Operator
Country
Launch date
Launch site
Launch vehicle
Mass (kg)
RCS (m²)

External: N2YO · Heavens-Above

§ Orbital elements

Epoch: 2026-09-18T07:05:25.209024Z

Period
106.76 min
Inclination
64.6142°
Eccentricity
0.0117795
Mean motion
13.48794981 rev/d
Perigee alt
988.9 km
Apogee alt
1,164.5 km
Semi-major
7,454.8 km
B*
5.2539e-4
RAAN
263.8231°
Arg perigee
203.0454°
Mean anomaly
156.5277°
Rev number
57,155

§ Raw data

UNKNOWN1 87280U          26261.29543066  .00000259  00000+0  52539-3 0  99992 87280  64.6142 263.8231 0117795 203.0454 156.5277 13.48794981571553

JSON: /api/v1/satellites/87280 · /tle

For live sub-satellite position, see the globe view (requires WebGL).

§ Visibility from observer

Set your observer location to see the next 7 days of passes ≥ 10°. The values pass through the URL so the page stays shareable.

No JS? Fill the form by hand. The geolocation button needs JavaScript.